Elmira, NY

3:35 PM EDT on September 26, 2017 (GMT -0400)
Elmira-Corning Regional

Weather History for KELM - September, 2013

Change the Weather History Date:

Friday, September 6, 2013

  Actual Average Record
Temperature  
Mean Temperature 53 °F -  
Max Temperature 70 °F 77 °F 95 °F (1954)
Min Temperature 37 °F 52 °F 33 °F (1996)
Degree Days  
Heating Degree Days 12    
Growing Degree Days 3 (Base 50)    
Moisture  
Dew Point 41 °F    
Average Humidity 72    
Maximum Humidity 93    
Minimum Humidity 32    
Precipitation  
Precipitation 0.00 in - - ()
Sea Level Pressure  
Sea Level Pressure 30.24 in    
Wind  
Wind Speed 2 mph (WSW)    
Max Wind Speed 9 mph    
Max Gust Speed -    
Visibility 10 miles    
Events      
Averages and records for this station are not official NWS values.
T = Trace of Precipitation, MM = Missing Value Source: NWS Daily Summary

Daily Weather History Graph

Daily Weather History Graph

Search for Another Location

Airport or City:

Trip Planner

Search our weather history database for the weather conditions in past years. The results will help you decide how hot, cold, wet, or windy it might be!

Date:

Astronomy

Sep. 06, 2013 Rise Set
Actual Time 6:38 AM EDT 7:32 PM EDT
Civil Twilight 6:09 AM EDT 8:00 PM EDT
Nautical Twilight 5:36 AM EDT 8:34 PM EDT
Astronomical Twilight 5:00 AM EDT 9:09 PM EDT
Moon 7:50 AM EDT (9/6) 7:52 PM EDT (9/6)
Length of Visible Light 13h 50m
Length of Day
12h 54m
New Moon, 1% of the Moon is Illuminated
Sep 6
New Moon
Sep 12
First Quarter
Sep 19
Full
Sep 26
Last Quarter
Oct 4
New

Hourly Weather History & Observations

Time (EDT) Temp. Windchill Dew Point Humidity Pressure Visibility Wind Dir Wind Speed Gust Speed Precip Events Conditions
12:53 AM 43.0 °F - 39.9 °F 89% 30.24 in 10.0 mi Calm Calm - N/A   Clear
1:53 AM 44.1 °F 39.5 °F 41.0 °F 89% 30.25 in 10.0 mi WSW 8.1 mph - N/A   Clear
2:53 AM 43.0 °F 40.3 °F 39.9 °F 89% 30.25 in 10.0 mi WSW 4.6 mph - N/A   Clear
3:53 AM 42.1 °F 40.2 °F 39.9 °F 92% 30.25 in 10.0 mi West 3.5 mph - N/A   Clear
4:53 AM 39.0 °F - 37.0 °F 93% 30.27 in 10.0 mi Calm Calm - N/A   Clear
5:53 AM 37.9 °F - 36.0 °F 93% 30.27 in 10.0 mi Calm Calm - N/A   Partly Cloudy
6:53 AM 37.9 °F - 36.0 °F 93% 30.29 in 10.0 mi Calm Calm - N/A   Clear
7:20 AM 39.2 °F - 37.4 °F 93% 30.29 in 10.0 mi Calm Calm - N/A   Scattered Clouds
7:31 AM 41.0 °F - 39.2 °F 93% 30.29 in 10.0 mi Calm Calm - N/A   Mostly Cloudy
7:53 AM 42.1 °F 40.2 °F 39.0 °F 89% 30.31 in 10.0 mi West 3.5 mph - N/A   Overcast
8:33 AM 44.6 °F 42.2 °F 42.8 °F 93% 30.30 in 10.0 mi SW 4.6 mph - N/A   Scattered Clouds
8:53 AM 46.0 °F 44.8 °F 42.1 °F 86% 30.31 in 10.0 mi SW 3.5 mph - N/A   Partly Cloudy
9:53 AM 53.1 °F - 44.1 °F 71% 30.31 in 10.0 mi Calm Calm - N/A   Clear
10:53 AM 59.0 °F - 43.0 °F 55% 30.30 in 10.0 mi Calm Calm - N/A   Clear
11:53 AM 61.0 °F - 39.9 °F 46% 30.28 in 10.0 mi Calm Calm - N/A   Clear
12:53 PM 64.0 °F - 41.0 °F 43% 30.26 in 10.0 mi Variable 3.5 mph - N/A   Clear
1:53 PM 64.9 °F - 39.9 °F 40% 30.24 in 10.0 mi WSW 3.5 mph - N/A   Clear
2:53 PM 66.9 °F - 39.9 °F 37% 30.21 in 10.0 mi SSW 9.2 mph - N/A   Clear
3:53 PM 69.1 °F - 37.9 °F 32% 30.20 in 10.0 mi Variable 3.5 mph - N/A   Clear
4:53 PM 69.1 °F - 39.9 °F 35% 30.18 in 10.0 mi Calm Calm - N/A   Clear
5:53 PM 68.0 °F - 37.0 °F 32% 30.17 in 10.0 mi Calm Calm - N/A   Clear
6:53 PM 63.0 °F - 48.9 °F 60% 30.17 in 10.0 mi Calm Calm - N/A   Clear
7:53 PM 57.0 °F - 48.0 °F 72% 30.16 in 10.0 mi Calm Calm - N/A   Clear
8:53 PM 53.1 °F - 46.0 °F 77% 30.17 in 10.0 mi Calm Calm - N/A   Clear
9:53 PM 51.1 °F - 46.0 °F 83% 30.16 in 10.0 mi SSW 3.5 mph - N/A   Clear
10:53 PM 51.1 °F - 46.0 °F 83% 30.14 in 10.0 mi Calm Calm - N/A   Clear
11:53 PM 50.0 °F - 46.0 °F 86% 30.14 in 10.0 mi Calm Calm - N/A   Clear